Voltar ao catálogo

CZ-6A DEB

AtivoPO
NORAD 61297·DEBRIS·🇨🇳 China

Lançado Aug 6, 2024 de Taiyuan Satellite Launch Center

Loading…

Próximas Passagens (próximas 24 horas)

TLE

AtualizadoSource: Space-Track

Época: Sep 14, 2026, 23:26 UTC

1 61297U 24140TJ  26257.97706671  .00002182  00000-0  96131-3 0  9997
2 61297  89.0396 268.5211 0056897 247.3939 112.1227 14.22250041106070

Acompanhe CZ-6A DEB em tempo real com AllMySat

Download on the App Store